Regional Weather Roundup
Issued by NWS Huntsville, AL

Home | Current Version | Previous Version | Text Only | Print | Product List | Glossary On
Versions: 1 2 3 4 5 6 7 8 9 10 11 12 13 14 15 16 17 18 19 20 21 22 23 24 25 26 27 28
000
ASUS44 KHUN 100810
RWRHUN

WEATHER ROUNDUP FOR THE TENNESSEE VALLEY
NATIONAL WEATHER SERVICE HUNTSVILLE AL
200 AM CST SAT DEC 10 2016

ALZ001>004-100900-
NORTHWEST ALABAMA

CITY           SKY/WX    TMP DP  RH WIND       PRES   REMARKS
COURTLAND HCN    N/A     21 N/A N/A CALM        N/A
RUSSELLVILLE     N/A     19 N/A N/A MISG        N/A
SHOALS AIRPORT CLEAR     25  19  78 CALM      30.57F
SHOALS TVA RES   N/A     28 N/A N/A MISG        N/A
$$

ALZ005>007-016-100900-
NORTH CENTRAL ALABAMA

CITY           SKY/WX    TMP DP  RH WIND       PRES   REMARKS
CULLMAN AG STN   N/A     23 N/A N/A CALM        N/A
DECATUR AP     CLEAR     24  21  88 N5        30.56F WCI  18
HUNTSVILLE AP  CLEAR     27  18  69 NE3       30.55S
MERIDIANVILLE  CLEAR     23  19  86 CALM      30.54F
REDSTONE ARSN  CLEAR     24  19  81 CALM      30.54F
VINEMONT AP    FAIR      23  17  77 CALM      30.54S
$$

ALZ008>010-100900-
NORTHEAST ALABAMA

CITY           SKY/WX    TMP DP  RH WIND       PRES   REMARKS
ALBERTVILLE    CLEAR     27  23  86 CALM      30.50S
FORT PAYNE     CLEAR     21  18  86 CALM      30.52S
SCOTTSBORO AP  CLEAR     23  19  86 CALM      30.55F
SCOTTSBORO HCN   N/A     21 N/A N/A MISG        N/A
VALLEY HEAD      N/A     19 N/A N/A MISG        N/A
$$

TNZ076-096-097-100900-
SOUTHEASTERN MIDDLE TENNESSEE

CITY           SKY/WX    TMP DP  RH WIND       PRES   REMARKS
TULLAHOMA      CLEAR     18  14  86 CALM      30.53F
WINCHESTER     CLEAR     18  18 100 CALM      30.53F
$$

...SURROUNDING SITES...

CITY           SKY/WX    TMP DP  RH WIND       PRES   REMARKS
ATLANTA        CLEAR     29  18  63 NW7       30.46S WCI  22
ANNISTON       CLEAR     23  19  85 CALM      30.53S
BIRMINGHAM     CLEAR     26  23  88 CALM      30.55S
CHATTANOOGA    CLEAR     27  17  66 CALM      30.55R
CORINTH        FAIR      21  18  86 CALM      30.57S
DALTON         CLEAR     27  21  80 NW6       30.53R WCI  20
GADSDEN        CLEAR     26  19  74 CALM      30.54F
GOLDEN TRNGL   CLEAR     25  18  74 CALM      30.52F
HALEYVILLE     FAIR      25  19  78 N3        30.55S
JACKSON TN     CLEAR     19  17  92 CALM      30.58F
MEMPHIS        CLEAR     26  18  71 CALM      30.58S
NASHVILLE      CLEAR     24  16  71 N5        30.59R WCI  18
OXFORD MS      FAIR      19  18  93 CALM      30.59S
ROME           CLEAR     25  19  78 N5        30.52S WCI  19
SAVANNAH       CLEAR     19  19 100 CALM      30.57S
TUPELO         CLEAR     22  17  81 N6        30.58S WCI  14
TUSCALOOSA     CLEAR     28  20  71 N5        30.57S WCI  23
$$

...GULF COAST WEATHER...

CITY           SKY/WX    TMP DP  RH WIND       PRES   REMARKS
GULFPORT       CLEAR     35  22  58 N7        30.52R WCI  29
PASCAGOULA     CLEAR     33  21  61 N8        30.53R WCI  26
MOBILE         CLEAR     33  21  61 N9        30.52S WCI  25
GULF SHORES    SUNNY     34  22  62 N5        30.51R WCI  30
PENSACOLA      CLEAR     35  22  58 N6        30.50R WCI  30
DESTIN         CLEAR     40  24  53 NE12      30.48S WCI  33
PANAMA CITY    CLEAR     38  25  58 N9        30.46S WCI  32
APPALACHICOLA  CLEAR     38  24  57 NE8       30.44R WCI  32
$$





USA.gov is the U.S. government's official web portal to all federal, state and local government web resources and services.